#timestamp,LO_Frequency,Hit,StdDev 
1548360015.7,286046999.4,N
1548360035.5,286046998.9,N
1548360055.3,286047000.6,N
1548360075.2,286047000.7,N
1548360095.9,286047002.2,N
1548360115.7,286047003.8,N
1548360135.6,286047003.7,N
1548360155.4,286047003.9,N
1548360175.3,286047004.3,N
1548360195.1,286047006.0,N
1548360196.0,286047006.0,N
1548360215.8,286047003.4,N
1548360235.7,286047003.5,N
1548360255.7,286047002.9,N
1548360275.5,286047001.8,N
1548360295.4,286047001.4,N
1548360315.2,286047003.0,N
1548360335.0,286047003.6,N
1548360335.9,286047003.6,N
1548360355.8,286047004.0,N
1548360375.6,286047002.9,N
1548360395.4,286047003.8,N
1548360415.3,286047003.3,N
1548360435.1,286047003.3,N
1548360455.9,286047004.0,N
1548360475.7,286047001.8,N
1548360495.5,286047002.4,N
1548360515.4,286047000.3,N
1548360535.2,286047002.7,N
1548360555.0,286047002.6,N
1548360555.9,286047002.6,N
1548360575.8,286047000.2,N
1548360595.6,286047000.5,N
1548360615.5,286047000.0,N
1548360635.3,286047001.4,N
1548360655.1,286047001.6,N
1548360675.9,286047001.7,N
1548360695.7,286046999.8,N
1548360715.5,286047000.1,N
1548360735.4,286047001.9,N
1548360755.2,286047001.4,N
1548360775.1,286047001.5,N
1548360776.0,286047001.5,N
1548360795.8,286047002.0,N
1548360815.6,286047002.5,N
1548360835.5,286047000.9,N
1548360855.3,286047000.2,N
1548360875.1,286047002.5,N
1548360895.9,286047001.5,N
1548360915.7,286046999.7,N
1548360935.6,286047000.4,N
1548360955.4,286046999.8,N
1548360975.2,286046999.9,N
1548360995.1,286047002.2,N
1548360996.0,286047002.2,N
1548361015.8,286047004.1,Y
1548361035.7,286046999.7,P
1548361055.5,286047000.4,N
1548361075.3,286047001.2,N
1548361095.2,286046999.4,N
1548361115.0,286046998.9,N
1548361115.9,286046998.9,N
1548361135.7,286047001.2,N
1548361155.6,286046998.5,N
1548361175.4,286047000.5,N
1548361195.3,286047002.0,N
1548361215.1,286047001.9,N
1548361216.0,286047001.9,N
1548361235.8,286046999.8,N
1548361255.7,286046998.6,N
1548361275.5,286047000.2,N
1548361295.3,286047002.3,N
1548361315.2,286047002.7,N
1548361335.0,286046998.5,N
1548361335.9,286046998.5,N
1548361355.8,286046998.3,N
1548361375.6,286047002.8,N
1548361395.4,286047000.8,N
1548361415.3,286046998.3,N
1548361435.1,286046998.5,N
1548361455.8,286047000.2,N
1548361475.7,286047002.0,N
1548361495.5,286047002.3,N
1548361515.4,286047000.4,N
1548361535.2,286047000.8,N
1548361555.0,286046999.3,N
1548361555.9,286046999.3,N
1548361575.8,286047001.2,N
1548361595.6,286046999.9,N
1548361615.4,286047001.1,N
1548361635.3,286047001.1,N
1548361655.1,286047001.0,N
1548361675.9,286046998.6,N
1548361695.7,286046996.9,N
1548361715.5,286046999.4,N
1548361735.4,286046999.1,N
1548361755.2,286046998.8,N
1548361775.0,286047000.5,N
1548361775.9,286047000.5,N
1548361795.8,286046998.1,N
1548361815.6,286046997.7,N
1548361835.5,286046996.5,N
1548361855.3,286046998.5,N
1548361875.1,286046998.2,N
1548361895.9,286046997.0,N
1548361915.7,286046997.7,N
1548361935.6,286046998.0,N
1548361955.4,286046997.2,N
1548361975.2,286046999.4,N
1548361995.1,286046996.5,N
1548361996.0,286046996.5,N
1548362015.8,286046999.1,N
1548362035.6,286046996.6,N
1548362055.5,286046998.4,N
1548362075.3,286046997.2,N
1548362095.2,286046996.9,N
1548362115.9,286046995.5,Y
1548362135.7,286046998.4,P
1548362155.6,286047000.6,P
1548362175.4,286047004.3,P
1548362195.3,286047002.0,N
1548362215.1,286047002.2,N
1548362216.0,286047002.2,N
1548362235.8,286047002.1,N
1548362255.7,286047001.7,N
1548362275.5,286047002.4,N
1548362295.3,286047002.2,N
1548362315.2,286047001.5,N
1548362335.0,286047000.4,N
1548362335.9,286047000.4,N
1548362355.8,286047000.0,N
1548362375.6,286046999.9,N
1548362395.4,286047002.0,N
1548362415.3,286047003.7,N
1548362435.1,286047003.1,N
1548362455.8,286047003.8,N
1548362475.7,286047001.7,N
1548362495.5,286047001.6,N
1548362515.4,286047001.0,N
1548362535.2,286047001.1,N
1548362555.0,286046998.9,N
1548362555.9,286046998.9,N
1548362575.8,286046998.8,N
1548362595.6,286046998.9,N
1548362615.5,286047000.7,N
1548362635.3,286046998.5,N
1548362655.1,286046998.3,N
1548362675.9,286047002.7,N
1548362695.7,286047002.2,N
1548362715.6,286047001.4,N
1548362735.4,286047001.4,N
1548362755.2,286047003.5,N
1548362775.1,286047001.3,N
1548362776.0,286047001.3,N
1548362795.8,286047001.8,N
1548362815.7,286047003.7,N
1548362835.5,286047002.0,N
1548362855.3,286047001.4,N
1548362875.2,286047003.7,N
1548362895.0,286047002.7,N
1548362895.9,286047002.7,N
1548362915.8,286047002.4,N
1548362935.6,286047003.9,N
1548362955.4,286047003.5,N
1548362975.3,286047003.1,N
1548362995.1,286047005.8,Y
1548363015.8,286047004.4,P
1548363035.7,286047002.5,N
1548363055.5,286047000.1,N
1548363075.4,286047002.3,N
1548363095.2,286047001.0,N
1548363115.0,286047002.6,N
1548363115.9,286047002.6,N
1548363135.8,286047002.7,N
1548363155.6,286047002.6,N
1548363175.4,286046998.7,N
1548363195.3,286046999.3,N
1548363215.1,286046998.6,N
1548363235.9,286046998.8,N
1548363255.7,286046997.4,N
1548363275.5,286046996.7,N
1548363295.4,286046997.9,N
1548363315.2,286046997.5,N
1548363335.0,286046997.4,N
1548363335.9,286046997.4,N
1548363355.8,286046996.7,N
1548363375.6,286046998.3,N
1548363395.5,286046999.9,N
1548363415.3,286046997.1,N
1548363435.1,286046995.4,N
1548363455.9,286046996.9,N
1548363475.7,286046997.7,N
1548363495.5,286046996.5,N
1548363515.4,286046999.5,N
1548363535.2,286046996.8,N
1548363555.1,286046998.6,N
1548363556.0,286046998.6,N
1548363575.8,286047000.4,N
1548363595.6,286047000.7,N
